Location: La Oliva
(42.2466°N, 2.9955°E)
Time: 10:33:39
(UTC+00:00)

Lacrosse 5 rocket - Pass Details

Date: 22 April 2021
Orbit: 460 x 634 km, 57.0° (Epoch: 11 May)

Event Time Altitude Azimuth Distance (km) Brightness Sun altitude
Rises 19:01:05 0° 295° (WNW) 2,666 7.7 -4.9°
Reaches altitude 10° 19:04:39 10° 329° (NNW) 1,826 4.9 -5.5°
Maximum altitude 19:06:12 12° 351° (N) 1,733 4.3 -5.8°
Drops below altitude 10° 19:07:47 10° 13° (NNE) 1,868 4.2 -6.1°
Sets 19:11:33 0° 46° (NE) 2,817 4.7 -6.7°
